ニート彗星

473P/NEAT (2024)

English version
Home page
Updated on June 4, 2024

---------------------------------------------------------------------

・ プロフィール

符号 473P/2023 W1
検出日 2023年11月29日
検出光度 17.6等
検出者 Hidetaka Sato (Deep Sky Chile observatory at Rio Hurtado)

・ 写真集

・ 軌道要素

Epoch 2024 Mar. 31.0 TT = JDT 2460400.5
T 2024 Feb. 26.24115 TT                                 Rudenko
q   1.4057864            (2000.0)            P               Q
n   0.04380493     Peri.   42.91694     +0.53774767     -0.78150758
a   7.9699216      Node    22.18450     +0.34263126     -0.14026141
e   0.8236135      Incl.   56.90812     +0.77034490     +0.60792486
P  22.5
>From 510 observations 2001 Aug. 18-2024 Mar. 16, mean residual 0".8.

・ 星図

・ 光度変化

        m1 = 14.0 + 5 logΔ +  10.0 log r  [   ,-50]  (              〜2024年 1月 9日)
        m1 = -5   + 5 logΔ + 110   log r  [-50,  0]  (2024年 1月 9日〜2024年 2月28日)
        m1 =  6.8 + 5 logΔ +  30   log r  [  0,   ]  (2024年 2月28日〜              )

---------------------------------------------------------------------

軌道要素はM.P.E.C. 2024-F34に掲載されたものです。
星図はステラナビゲータ Ver.10 (アストロアーツ) で作成したものです。
光度グラフはComet for Windowsで作成したものです。

---------------------------------------------------------------------

Copyright(C) Seiichi Yoshida (comet@aerith.net). All rights reserved.